Hemavan current weather conditions

sailwx.info

Wind from 170 at 1 knots

Air temperature -27.0° C
Visibility: greater than 5.4 NM
Dewpoint -30.0° C

Last reported at 2017-Jan-16 11:20 UTC.
Time now 2017-Jan-16 12:54 UTC

Location: N 65°48' E 015°05'.
View on Google Maps.

See reports from other nearby stations

  
Tides and Currents Weather Stations Pressure Air Temp Water Temp Dewpoint Dewpoint Depression Visibility Wind Speed Wind Dir Waves Ship Positions
date/time (UTC)wind fromknots sea level pressurealtimeterstation pressurevisibilityair tempwater tempwave heightnotes
2017-Jan-16 11:20 170 1 5.4-27.0
2017-Jan-16 10:50 5.4-26.0
2017-Jan-16 10:20 5.4-26.0
2017-Jan-16 09:50 5.4-26.0 Mist.
2017-Jan-16 09:20 5.4-27.0
2017-Jan-16 08:50 5.4-27.0
2017-Jan-16 08:20 5.4-27.0
2017-Jan-16 07:50 5.4-26.0
2017-Jan-16 07:20 5.4-26.0
2017-Jan-16 06:50 5.4-26.0
2017-Jan-16 06:20 5.4-25.0
2017-Jan-16 05:50 5.4-25.0
2017-Jan-16 05:20 5.4-25.0 Light snow.
2017-Jan-16 04:50 5.4-25.0
2017-Jan-16 04:20 5.4-24.0
2017-Jan-16 03:50 180 0 5.4-24.0
2017-Jan-16 03:20 170 0 5.4-23.0
2017-Jan-16 02:50 5.4-21.0
2017-Jan-16 02:20 5.4-21.0
2017-Jan-16 01:50 220 0 5.4-20.0
2017-Jan-16 01:20 5.4-21.0
2017-Jan-16 00:50 5.4-20.0
2017-Jan-16 00:20 5.4-20.0
2017-Jan-15 23:50 140 2 5.4-20.0
2017-Jan-15 23:20 5.4-18.0
2017-Jan-15 22:50 5.4-16.0
2017-Jan-15 22:20 5.4-17.0
2017-Jan-15 21:50 5.4-14.0
2017-Jan-15 21:20 070 2 5.4-12.0
2017-Jan-15 20:50 5.4-13.0
2017-Jan-15 20:20 5.4-11.0
2017-Jan-15 19:50 5.4-7.0
2017-Jan-15 19:20 5.4-7.0
2017-Jan-15 18:50 310 4 5.4-4.0
2017-Jan-15 18:20 320 6 5.4-3.0
2017-Jan-15 17:50 330 13 5.4-2.0
2017-Jan-15 17:20 360 13 5.4-2.0 Light snow.
2017-Jan-15 16:50 330 13 1.5-2.0 Snow grains.
2017-Jan-15 16:20 310 13 4.3-2.0 Light snow.
2017-Jan-15 15:50 300 6 5.4-2.0 Precipitation.
2017-Jan-15 15:20 310 4 5.4-2.0
2017-Jan-15 14:50 300 4 5.4-2.0
2017-Jan-15 14:20 230 2 5.4-1.0 Light snow.
2017-Jan-15 13:50 5.4-1.0 Snow grains.
2017-Jan-15 13:20 2.7-2.0 Light snow.
2017-Jan-15 12:50 360 2 0.3-2.0 Snow.
2017-Jan-15 12:20 0.3-3.0 Heavy snow.
2017-Jan-15 11:50 300 13 0.2-3.0 Heavy snow.
2017-Jan-15 11:20 290 13 2.7-2.0 Light snow.
2017-Jan-15 10:50 300 9 5.4-2.0
2017-Jan-15 10:20 330 6 5.4-3.0 Light snow.
2017-Jan-15 09:50 300 9 0.5-3.0 Snow.
2017-Jan-15 09:20 300 9 2.7-3.0 Light snow.
2017-Jan-15 08:50 280 13 5.4-2.0
2017-Jan-15 08:20 290 9 5.4-2.0
2017-Jan-15 07:50 310 6 3.8-3.0 Light snow.
2017-Jan-15 07:20 310 6 5.4-4.0
2017-Jan-15 06:50 5.4-4.0
2017-Jan-15 06:20 200 4 5.4-6.0 Light snow.
2017-Jan-15 05:50 110 2 2.7-8.0 Light snow.
2017-Jan-15 05:20 3.2-8.0 Light snow.
2017-Jan-15 04:50 1.9-9.0 Light snow.
2017-Jan-15 04:20 2.4-9.0 Light snow.
2017-Jan-15 03:50 1.8-9.0 Light snow.
2017-Jan-15 03:20 2.1-9.0 Light snow.
2017-Jan-15 02:50 1.1-9.0 Light snow.
2017-Jan-15 02:20 150 5 2.2-9.0 Light snow.
2017-Jan-15 01:50 150 4 5.4-9.0 Snow grains.
2017-Jan-15 01:20 160 5 0.6-11.0 Light snow.
2017-Jan-15 00:50 150 6 0.9-11.0 Light snow.
2017-Jan-15 00:20 150 4 1.2-11.0 Light snow.
2017-Jan-14 23:50 150 5 2.7-12.0 Light snow.
2017-Jan-14 23:20 160 4 1.9-13.0 Light snow.
2017-Jan-14 22:50 5.4-14.0
2017-Jan-14 22:20 5.4-13.0 Snow grains.
2017-Jan-14 21:50 5.4-13.0
2017-Jan-14 21:20 5.4-13.0
2017-Jan-14 20:50 5.4-14.0
2017-Jan-14 20:20 5.4-14.0 Light snow.
2017-Jan-14 19:50 5.4-14.0
2017-Jan-14 19:20 5.4-15.0
2017-Jan-14 18:50 5.4-16.0
2017-Jan-14 18:20 5.4-16.0 Light snow.
2017-Jan-14 17:50 160 4 2.6-16.0 Light snow.
2017-Jan-14 17:20 2.7-17.0 Light snow.
2017-Jan-14 16:50 5.4-17.0 Light snow.
2017-Jan-14 16:20 5.4-17.0 Light snow.
2017-Jan-14 15:50 5.4-16.0
2017-Jan-14 15:20 5.4-17.0
2017-Jan-14 14:50 5.4-17.0
2017-Jan-14 14:20 5.4-16.0
2017-Jan-14 13:50 5.4-17.0
2017-Jan-14 13:20 5.4-17.0
2017-Jan-14 12:50 150 2 5.4-16.0
2017-Jan-14 12:20 5.4-15.0